AirNav   TITAN Aviation Fuels
 
 1096 users online  

5S9 Valley View Airport
Estacada, Oregon, USA

GOING TO ESTACADA?


FAA INFORMATION EFFECTIVE 20 MAY 2021

Location

FAA Identifier: 5S9
Lat/Long: 45-18-29.4350N 122-19-07.3070W
45-18.490583N 122-19.121783W
45.3081764,-122.3186964
(estimated)
Elevation: 735 ft. / 224 m (estimated)
Variation: 19E (1985)
From city: 1 mile NE of ESTACADA, OR
Time zone: UTC -7 (UTC -8 during Standard Time)
Zip code: 97023

Airport Operations

Airport use: Open to the public
Activation date: 03/1975
Control tower: no
ARTCC: SEATTLE CENTER
FSS: MC MINNVILLE FLIGHT SERVICE STATION
NOTAMs facility: MMV (NOTAM-D service available)
Attendance: IREG
Pattern altitude: 1685 ft. MSL
Wind indicator: yes
Segmented circle: no
Lights: LIRL RY 16/34 OWNER'S USE ONLY.

Airport Communications

CTAF: 122.9
WX ASOS at TTD (15 nm N): 135.625 (503-492-2887)
WX ASOS at UAO (19 nm W): PHONE 503-678-3011

Nearby radio navigation aids

VOR radial/distance  VOR name  Freq  Var
UBGr075/27.9NEWBERG VOR/DME117.4021E
BTGr136/28.8BATTLE GROUND VORTAC116.6021E

 
NDB name  Hdg/Dist  Freq  Var  ID
BANKS106/36.235616EPND .--. -. -..

Airport Services

Parking: tiedowns
Bottled oxygen: NONE
Bulk oxygen: NONE

Runway Information

Runway 16/34

Dimensions: 3780 x 32 ft. / 1152 x 10 m
Surface: asphalt, in good condition
Runway edge lights: non-standard
NSTD LIRL - INNER 2200 FT LGTD.
RUNWAY 16  RUNWAY 34
Traffic pattern: leftleft
Displaced threshold: 490 ft.no
Markings: numbers only, in good conditionnumbers only, in good condition
Obstructions: 70 ft. trees, 201 ft. from runway
RWY 16 75 FT TREES AT 10-200 FT FM RWY END, 60-100 FT LEFT & RIGHT OF CNTRLN. PVT RD ACES THE ARPT THRU SAFTEY AREA AND RPZ.
70 ft. trees, 201 ft. from runway, 125 ft. left and right of centerline
40-60 FT TREES AT 150-200 FT FM RWY END AND 75-85 FT LEFT OF CNTRLN.

Airport Ownership and Management from official FAA records

Ownership: Privately-owned
Owner: 5 SIERRA 9, LLC - MICHAEL CZYZ
4136 S. LAKE PARK AVENUE
CHICAGO, IL 60653
Phone 312-953-9055
Manager: MICHAEL CZYZ
4136 S. LAKE PARK AVENUE
CHICAGO, IL 60653
Phone 312-953-9055

Airport Operational Statistics

Aircraft based on the field: 33
Single engine airplanes: 28
Multi engine airplanes: 4
Helicopters: 1
    
Aircraft operations: avg 57/week *
62% transient general aviation
38% local general aviation
* for 12-month period ending 08 March 2021

Additional Remarks

FOR CD CTC PORTLAND APCH AT 503-493-7545.
15-45 FT TREES AT 20 FT E OF RWY FULL LEN.

Instrument Procedures

There are no published instrument procedures at 5S9.

Some nearby airports with instrument procedures:

KTTD - Portland-Troutdale Airport (15 nm N)
KUAO - Aurora State Airport (19 nm W)
KPDX - Portland International Airport (21 nm NW)
KVUO - Pearson Field Airport (24 nm NW)
KHIO - Portland-Hillsboro Airport (30 nm NW)
 
Loc | Ops | Rwys | IFR | FBO | Links
Com | Nav | Svcs | Stats | Notes
Area around 5S9 (Valley View Airport)
 
Road maps at: MapQuest Bing Google
 
Aerial photo
WARNING: Photo may not be current or correct
Aerial photo of 5S9 (Valley View Airport)
Taken in October 2010
from ~500ft AGL from the south end, facing north.

Do you have a better or more recent aerial photo of Valley View Airport that you would like to share? If so, please send us your photo.

 
Sectional chart

 
Airport distance calculator
Flying to Valley View Airport? Find the distance to fly.

From to 5S9

Sunrise and sunset
Times for 13-Jun-2021
 Local
(UTC-7)
 Zulu
(UTC)
Morning civil twilight04:4411:44
Sunrise05:2212:22
Sunset20:5703:57
Evening civil twilight21:3504:35

Current date and time
Zulu (UTC)  13-Jun-2021 21:12:07
Local (UTC-7)  13-Jun-2021 14:12:07
 
METAR
KTTD 
15nm N 
132053Z 00000KT 10SM -RA FEW048 BKN060 OVC100 21/15 A2986 RMK AO2 RAE18B45 SLP112 P0000 60002 T02060150 53001
KUAO 
19nm W 
132053Z 17004KT 7SM RA FEW015 SCT060 OVC090 17/16 A2989 RMK AO2 SLP120 P0009 60010 T01720161 53006
KPDX 
20nm NW 
132102Z 12004KT 5SM -RA SCT017 BKN026 OVC050 18/16 A2988 RMK AO2 P0001 T01830156
KVUO 
23nm NW 
132053Z AUTO 00000KT 1 1/2SM RA BKN047 OVC065 19/14 A2987 RMK AO2 RAB01 SLP114 P0008 60009 T01890144 53002
TAF
KTTD 
15nm N 
131737Z 1318/1418 09011KT P6SM -RA SCT045 OVC100 FM132100 VRB04KT P6SM -RA SCT025 BKN050 FM140300 VRB03KT P6SM -RA OVC035 FM140700 VRB03KT P6SM -RA OVC025
KUAO 
19nm W 
131737Z 1318/1418 VRB03KT P6SM -RA SCT020 OVC090 FM132100 VRB04KT P6SM -RA SCT025 BKN050 FM140100 24005KT P6SM -RA OVC030 TEMPO 1401/1404 4SM -RA OVC015 FM140400 VRB04KT 6SM -RA OVC030 FM141400 VRB03KT 6SM -RA OVC025
NOTAMs
Click for the latest NOTAMs
NOTAMs are issued by the DoD/FAA and will open in a separate window not controlled by AirNav.

 

 
 

Would you like to see your business listed on this page?

 If your business provides an interesting product or service to pilots, flight crews, aircraft, or users of the Valley View Airport, you should consider listing it here.  To start the listing process, click on the button below
 
Add a business
 

Other Pages about Valley View Airport

Update a link
 
Copyright © AirNav, LLC. All rights reserved. Privacy Policy  Contact